User: anonymous   Login
Location: Lawrence
(38.9720°N, 95.2350°W)
Time: 04:30:35
(UTC-05:00)
Language:

ALOS - Orbit

View from above orbital plane
View from above orbital plane
View from above satellite
View from above satellite

Ground track
Ground track

The orbit data is extracted from the following two-line orbital elements,

1 28931U 06002A   17117.98331495 +.00000267 +00000-0 +61525-4 0  9998
2 28931 097.8476 147.8391 0002468 098.8921 261.2563 14.62343393600128
Epoch (UTC): 27 April 2017 23:35:58
Eccentricity: 0.0002468
inclination: 97.8476°
perigee height: 684 km
apogee height: 687 km
right ascension of ascending node: 147.8391°
argument of perigee: 98.8921°
revolutions per day: 14.62343393
mean anomaly at epoch: 261.2563°
orbit number at epoch: 60012

The dashed part of the orbit path shows where the satellite is in the earth's shadow,  

DLR